Regional Weather Roundup
Issued by NWS Goodland, KS

Home | Current Version | Previous Version | Text Only | Print | Product List | Glossary On
Versions: 1 2 3 4 5 6 7 8 9 10 11 12 13 14 15 16 17 18 19 20 21 22 23 24 25 26 27 28 29 30 31 32 33 34 35 36 37 38 39 40 41 42 43 44 45 46 47 48 49 50
000
ASUS43 KGLD 210708
RWRGLD

GOODLAND FORECAST AREA HOURLY WEATHER ROUNDUP
NATIONAL WEATHER SERVICE GOODLAND KS
100 AM MDT TUE OCT 21 2014

...OFFICIAL OBSERVATIONS...

CITY           SKY/WX    TMP DP  RH WIND       PRES   REMARKS
GOODLAND KS    CLEAR     52  40  63 SW9       30.11S
HILL CITY KS   CLEAR     48  41  76 W5        30.09R
IMPERIAL NEB   CLEAR     51  37  58 S7        30.07S
MCCOOK NEB     CLEAR     50  40  68 SW10      30.07R
AKRON CO       CLEAR     55  42  61 S16       30.06F
BURLINGTON CO  CLEAR     52  41  66 S13       30.10F
LIMON CO       CLEAR     51  45  79 S12       30.13F
$$

...UNOFFICIAL OBSERVATIONS...

CITY           SKY/WX    TMP DP  RH WIND       PRES   REMARKS
COLBY KS       CLEAR     48  43  81 SW6       30.10R
GOVE KS          N/A     49  32  52 MISG        N/A
NORTON KS      CLEAR     46  37  71 SW6       30.07R
SHARON SPRINGS   N/A     51  42  72 S9          N/A
TRENTON NEB      N/A     53  32  45 SW9         N/A
KIT CARSON CO    N/A     45  39  80 CALM        N/A
YUMA CO          N/A     52  41  65 S12         N/A
$$


USA.gov is the U.S. government's official web portal to all federal, state and local government web resources and services.